When you browse on this site, cookies collect data to enhance your experience and personalize the content and advertising you see.
Visit our Privacy Policy to learn more. By continuing to use the site, you agree to this use of cookies and data.
  • En España
  • Lista de países
  • Para 7 días
  • Temperatura del agua
  • El tiempo en el mapa
  • Informadores
  • user-avatar
    Iniciar sesión

    Tiempo cada hora Trowbridge

    Hoy, 6 Diciembre, Viernes

    Tiempo Temperatura Precipitaciones Viento Presión Humedad
    00:00 +9°C° 0 mm 6 mps 754 mmHg 89%
    01:00 +9°C° 0.2 mm 6 mps 754 mmHg 90%
    02:00 +9°C° 0.2 mm 6 mps 753 mmHg 92%
    03:00 +9°C° 0.2 mm 6 mps 752 mmHg 93%
    04:00 +10°C° 0.4 mm 7 mps 752 mmHg 93%
    05:00 +10°C° 0.4 mm 7 mps 752 mmHg 93%
    06:00 +11°C° 0 mm 7 mps 751 mmHg 92%
    07:00 +11°C° 0.1 mm 7 mps 751 mmHg 92%
    08:00 +11°C° 0.1 mm 7 mps 751 mmHg 92%
    09:00 +11°C° 0.1 mm 7 mps 750 mmHg 92%
    10:00 +11°C° 0.1 mm 8 mps 750 mmHg 90%
    11:00 +11°C° 0.1 mm 8 mps 749 mmHg 87%
    12:00 +11°C° 0 mm 7 mps 749 mmHg 84%
    13:00 +10°C° 0.3 mm 8 mps 749 mmHg 84%
    14:00 +10°C° 0.3 mm 8 mps 748 mmHg 85%
    15:00 +8°C° 0.3 mm 9 mps 748 mmHg 85%
    16:00 +9°C° 0.1 mm 8 mps 749 mmHg 86%
    17:00 +8°C° 0.1 mm 7 mps 750 mmHg 86%
    18:00 +7°C° 0.1 mm 6 mps 751 mmHg 87%
    19:00 +7°C° 0 mm 5 mps 751 mmHg 88%
    20:00 +7°C° 0 mm 5 mps 752 mmHg 90%
    21:00 +6°C° 0 mm 5 mps 753 mmHg 91%
    22:00 +6°C° 0 mm 4 mps 753 mmHg 91%
    23:00 +6°C° 0 mm 4 mps 754 mmHg 92%

    Mañana, 7 Diciembre, Sábado

    Tiempo Temperatura Precipitaciones Viento Presión Humedad
    00:00 +6°C° 0 mm 4 mps 754 mmHg 92%
    01:00 +6°C° 0 mm 4 mps 755 mmHg 93%
    02:00 +5°C° 0 mm 4 mps 755 mmHg 93%
    03:00 +5°C° 0 mm 3 mps 755 mmHg 94%
    04:00 +5°C° 0 mm 3 mps 755 mmHg 94%
    05:00 +5°C° 0 mm 3 mps 756 mmHg 94%
    06:00 +5°C° 0 mm 3 mps 756 mmHg 95%
    07:00 +5°C° 0 mm 3 mps 756 mmHg 95%
    08:00 +5°C° 0 mm 3 mps 756 mmHg 95%
    09:00 +5°C° 0 mm 3 mps 757 mmHg 95%
    10:00 +7°C° 0 mm 3 mps 757 mmHg 91%
    11:00 +8°C° 0 mm 4 mps 757 mmHg 88%
    12:00 +10°C° 0 mm 4 mps 757 mmHg 84%
    13:00 +10°C° 0 mm 4 mps 757 mmHg 86%
    14:00 +8°C° 0 mm 4 mps 756 mmHg 87%
    15:00 +8°C° 0 mm 4 mps 756 mmHg 89%
    16:00 +8°C° 0 mm 4 mps 756 mmHg 90%
    17:00 +7°C° 0 mm 4 mps 755 mmHg 92%
    18:00 +7°C° 0 mm 4 mps 755 mmHg 93%
    19:00 +7°C° 0 mm 5 mps 754 mmHg 93%
    20:00 +7°C° 0 mm 6 mps 754 mmHg 94%
    21:00 +8°C° 0 mm 7 mps 753 mmHg 94%
    22:00 +7°C° 0.1 mm 8 mps 752 mmHg 93%
    23:00 +9°C° 0.1 mm 8 mps 751 mmHg 91%

    Pasado mañana, 8 Diciembre, Domingo

    Tiempo Temperatura Precipitaciones Viento Presión Humedad
    00:00 +8°C° 0.1 mm 9 mps 750 mmHg 90%
    01:00 +10°C° 1 mm 9 mps 749 mmHg 91%
    02:00 +11°C° 1 mm 9 mps 747 mmHg 92%
    03:00 +11°C° 1 mm 9 mps 746 mmHg 93%
    04:00 +10°C° 0.1 mm 9 mps 746 mmHg 90%
    05:00 +9°C° 0.1 mm 8 mps 747 mmHg 88%
    06:00 +8°C° 0.1 mm 7 mps 747 mmHg 85%
    07:00 +8°C° 0 mm 7 mps 747 mmHg 85%
    08:00 +7°C° 0 mm 6 mps 747 mmHg 85%
    09:00 +7°C° 0 mm 6 mps 748 mmHg 85%
    10:00 +6°C° 0.2 mm 7 mps 748 mmHg 85%
    11:00 +6°C° 0.2 mm 8 mps 747 mmHg 84%
    12:00 +6°C° 0.2 mm 9 mps 747 mmHg 83%
    13:00 +6°C° 0.4 mm 9 mps 747 mmHg 81%
    14:00 +6°C° 0.4 mm 9 mps 746 mmHg 79%
    15:00 +5°C° 0.4 mm 9 mps 745 mmHg 77%
    16:00 +5°C° 0.1 mm 8 mps 745 mmHg 78%
    17:00 +4°C° 0.1 mm 8 mps 745 mmHg 79%
    18:00 +4°C° 0.1 mm 8 mps 745 mmHg 81%
    19:00 +3°C° 0.1 mm 9 mps 743 mmHg 81%
    20:00 +3°C° 0.1 mm 10 mps 742 mmHg 82%
    21:00 +4°C° 0.1 mm 11 mps 741 mmHg 83%
    22:00 +5°C° 0.6 mm 10 mps 740 mmHg 82%
    23:00 +5°C° 0.6 mm 9 mps 740 mmHg 82%

    9 Diciembre, Lunes

    Tiempo Temperatura Precipitaciones Viento Presión Humedad
    00:00 +5°C° 0.6 mm 9 mps 739 mmHg 81%
    01:00 +5°C° 0.3 mm 9 mps 740 mmHg 81%
    02:00 +5°C° 0.3 mm 8 mps 740 mmHg 81%
    03:00 +4°C° 0.3 mm 8 mps 740 mmHg 82%
    04:00 +5°C° 0 mm 10 mps 741 mmHg 82%
    05:00 +4°C° 0 mm 11 mps 741 mmHg 82%
    06:00 +4°C° 0 mm 12 mps 741 mmHg 82%
    07:00 +4°C° 0 mm 12 mps 743 mmHg 78%
    08:00 +6°C° 0 mm 11 mps 745 mmHg 75%
    09:00 +6°C° 0 mm 11 mps 746 mmHg 72%
    10:00 +6°C° 0.1 mm 10 mps 748 mmHg 72%
    11:00 +6°C° 0.1 mm 10 mps 750 mmHg 72%
    12:00 +7°C° 0.1 mm 10 mps 752 mmHg 73%
    13:00 +6°C° 0 mm 9 mps 754 mmHg 72%
    14:00 +6°C° 0 mm 8 mps 755 mmHg 72%
    15:00 +5°C° 0 mm 7 mps 756 mmHg 72%
    16:00 +4°C° 0 mm 6 mps 757 mmHg 73%
    17:00 +4°C° 0 mm 6 mps 759 mmHg 73%
    18:00 +3°C° 0 mm 5 mps 760 mmHg 74%
    19:00 +3°C° 0 mm 4 mps 761 mmHg 76%
    20:00 +2°C° 0 mm 3 mps 762 mmHg 77%
    21:00 +3°C° 0 mm 2 mps 763 mmHg 79%
    22:00 +2°C° 0 mm 2 mps 763 mmHg 80%
    23:00 +3°C° 0 mm 1 mps 764 mmHg 80%

    10 Diciembre, Martes

    Tiempo Temperatura Precipitaciones Viento Presión Humedad
    00:00 +3°C° 0 mm 1 mps 764 mmHg 81%
    01:00 +3°C° 0 mm 1 mps 764 mmHg 81%
    02:00 +3°C° 0 mm 1 mps 764 mmHg 80%
    03:00 +2°C° 0 mm 2 mps 764 mmHg 80%
    04:00 +2°C° 0 mm 2 mps 763 mmHg 80%
    05:00 +2°C° 0 mm 2 mps 763 mmHg 81%
    06:00 +1°C° 0 mm 3 mps 763 mmHg 81%
    07:00 +1°C° 0 mm 4 mps 762 mmHg 81%
    08:00 +3°C° 0 mm 4 mps 762 mmHg 81%
    09:00 +3°C° 0 mm 5 mps 761 mmHg 81%
    10:00 +4°C° 0.1 mm 6 mps 760 mmHg 83%
    11:00 +5°C° 0.1 mm 7 mps 759 mmHg 85%
    12:00 +6°C° 0.1 mm 8 mps 758 mmHg 86%
    13:00 +6°C° 0.8 mm 9 mps 757 mmHg 88%
    14:00 +6°C° 0.8 mm 9 mps 755 mmHg 90%
    15:00 +6°C° 0.8 mm 10 mps 754 mmHg 91%
    16:00 +7°C° 0.3 mm 10 mps 753 mmHg 91%
    17:00 +8°C° 0.3 mm 10 mps 752 mmHg 92%
    18:00 +8°C° 0.3 mm 10 mps 750 mmHg 92%
    19:00 +9°C° 0.6 mm 11 mps 750 mmHg 92%
    20:00 +9°C° 0.6 mm 12 mps 749 mmHg 92%
    21:00 +9°C° 0.6 mm 13 mps 748 mmHg 91%
    22:00 +8°C° 2 mm 11 mps 748 mmHg 89%
    23:00 +7°C° 2 mm 9 mps 749 mmHg 87%

    11 Diciembre, Miércoles

    Tiempo Temperatura Precipitaciones Viento Presión Humedad
    00:00 +6°C° 2 mm 7 mps 749 mmHg 85%
    01:00 +5°C° 0 mm 6 mps 750 mmHg 85%
    02:00 +3°C° 0 mm 5 mps 751 mmHg 85%
    03:00 +3°C° 0 mm 4 mps 752 mmHg 84%
    04:00 +3°C° 0 mm 4 mps 752 mmHg 85%
    05:00 +3°C° 0 mm 3 mps 753 mmHg 86%
    06:00 +3°C° 0 mm 3 mps 753 mmHg 87%
    07:00 +3°C° 0.1 mm 3 mps 753 mmHg 87%
    08:00 +3°C° 0.1 mm 3 mps 753 mmHg 88%
    09:00 +3°C° 0.1 mm 4 mps 753 mmHg 89%
    10:00 +4°C° 0 mm 4 mps 753 mmHg 86%
    11:00 +5°C° 0 mm 5 mps 753 mmHg 82%
    12:00 +6°C° 0 mm 5 mps 752 mmHg 79%
    13:00 +6°C° 0.2 mm 5 mps 752 mmHg 82%
    14:00 +5°C° 0.2 mm 4 mps 751 mmHg 84%
    15:00 +5°C° 0.2 mm 4 mps 751 mmHg 86%
    16:00 +5°C° 0.7 mm 4 mps 751 mmHg 86%
    17:00 +4°C° 0.7 mm 4 mps 751 mmHg 86%
    18:00 +4°C° 0.7 mm 4 mps 751 mmHg 87%
    19:00 +3°C° 0 mm 4 mps 751 mmHg 86%
    20:00 +3°C° 0 mm 4 mps 752 mmHg 86%
    21:00 +1°C° 0 mm 4 mps 752 mmHg 85%
    22:00 +1°C° 0 mm 4 mps 752 mmHg 86%
    23:00 +1°C° 0 mm 4 mps 752 mmHg 87%
    Mostrar más